カタログに戻る

DELTA 1 DEB

運用中SSO
NORAD 7050·DEBRIS·🇺🇸 United States

打ち上げ Nov 6, 1973 から Vandenberg Space Force Base

Loading…

次のパス (今後24時間)

TLE

最新Source: Space-Track

元期: Sep 13, 2026, 21:32 UTC

1 07050U 73086AS  26256.89772963  .00000235  00000-0  16432-2 0  9996
2 07050 101.6750 236.3752 0052645  30.8458  26.1021 12.58319796409581

AllMySatでDELTA 1 DEBをリアルタイム追跡

Download on the App Store